Location: Grasslands National Park East Block
(49.0708°N, 106.5295°W)
Time: 02:55:55
(UTC-06:00)

SR - Pass Details

Date: 28 October 2019
Orbit: 574 x 882 km, 66.7° (Epoch: 17 November)

Event Time Altitude Azimuth Distance (km) Brightness Sun altitude
Exits shadow 04:31:50 28° 359° (N) 1,601 ? -32.2°
Maximum altitude 04:34:03 37° 41° (NE) 1,342 ? -31.9°
Drops below altitude 10° 04:39:31 10° 108° (ESE) 2,533 ? -31.0°
Sets 04:42:11 0° 116° (ESE) 3,453 ? -30.6°
